User: anonymous   Login
Location: Unspecified
(0.0000°N, 0.0000°E)
Time: 04:17:43
(UTC+00:00)
Language:

MUOS 2 - Orbit

View from above orbital plane
View from above orbital plane
View from above satellite
View from above satellite

Ground track
Ground track

The orbit is defined by the following mean orbital elements,

1 39206U          26145.54658603 +.00000000 +00000-0 +00000-0 0 00008
2 39206   4.9511  45.4959 0050247 178.6425  27.7756  1.00269328    04
Epoch (UTC): 25 May 2026 13:07:05
Eccentricity: 0.0050247
inclination: 4.9511°
perigee height: 35575 km
apogee height: 35999 km
right ascension of ascending node: 45.4959°
argument of perigee: 178.6425°
revolutions per day: 1.00269328
mean anomaly at epoch: 27.7756°

The dashed part of the orbit path shows where the satellite is in the earth's shadow,  

DLR